This is the latest recevied weather packets stored in our database for station/object EA5JUX. If no packets are shown the sender has not sent any weather packets the latest 10 day(s).
| Time | Temp. | Humidity | Pressure | Rain* | Wind** | Luminosity | Snow |
|---|---|---|---|---|---|---|---|
| 1788021135 | 27.78° C | 65% | 1015.7 hPa | 0 mm | - | - | - |
| 1788020835 | 27.78° C | 65% | 1015.8 hPa | 0 mm | - | - | - |
| 1788020535 | 28.33° C | 64% | 1015.8 hPa | 0 mm | - | - | - |
| 1788020235 | 28.33° C | 63% | 1016 hPa | 0 mm | - | - | - |
| 1788019935 | 28.33° C | 64% | 1016 hPa | 0 mm | - | - | - |
| 1788019634 | 27.78° C | 63% | 1016 hPa | 0 mm | - | - | - |
| 1788019336 | 27.78° C | 64% | 1015.9 hPa | 0 mm | - | - | - |
| 1788019036 | 28.33° C | 63% | 1016 hPa | 0 mm | - | - | - |
| 1788018734 | 27.78° C | 63% | 1016.2 hPa | 0 mm | - | - | - |
| 1788018450 | 27.78° C | 63% | 1016.3 hPa | 0 mm | - | - | - |
| 1788018147 | 28.33° C | 63% | 1016.3 hPa | 0 mm | - | - | - |
| 1788017834 | 28.33° C | 62% | 1016.2 hPa | 0 mm | - | - | - |
| 1788017549 | 28.33° C | 63% | 1016.1 hPa | 0 mm | - | - | - |
| 1788017235 | 28.33° C | 61% | 1016.2 hPa | 0 mm | - | - | - |
| 1788016952 | 28.33° C | 63% | 1016.3 hPa | 0 mm | - | - | - |
| 1788016635 | 28.33° C | 63% | 1016.4 hPa | 0 mm | - | - | - |
| 1788016335 | 27.78° C | 64% | 1016.3 hPa | 0 mm | - | - | - |
| 1788016035 | 27.78° C | 66% | 1016.5 hPa | 0 mm | - | - | - |
| 1788015736 | 27.78° C | 64% | 1016.5 hPa | 0 mm | - | - | - |
| 1788015435 | 27.22° C | 65% | 1016.7 hPa | 0 mm | - | - | - |
| 1788015134 | 27.22° C | 65% | 1016.6 hPa | 0 mm | - | - | - |
| 1788014835 | 27.78° C | 63% | 1016.4 hPa | 0 mm | - | - | - |
| 1788014549 | 28.33° C | 60% | 1016.8 hPa | 0 mm | - | - | - |
| 1788014234 | 28.33° C | 60% | 1016.5 hPa | 0 mm | - | - | - |
| 1788013935 | 28.33° C | 60% | 1016.7 hPa | 0 mm | - | - | - |
* Rain latest hour (hover to see other rain measurements)
** Current wind speed in m/s (hover to see current wind gust speed)